Wind_Speed
17 15 14 13 13 13 15 16 17 19 20 20 20 18 17 13 10 6 5 5 2 1 2 2 2 3 4 2 1 4 4 7 6 3 3 4 5 5 6 6 8 9 9 10 13
17 16 15 14 14 14 15 17 18 19 20 20 20 18 15 11 9 8 6 6 4 3 3 3 3 3 2 3 3 5 7 6 6 5 4 5 7 9 9 8 10 10 12 14 16
19 18 16 16 16 15 15 17 19 21 23 22 18 16 11 9 9 9 9 9 7 6 8 7 7 8 8 9 7 8 9 9 8 8 7 8 9 9 7 8 10 11 12 15 18
21 20 19 18 17 17 18 19 21 22 22 17 13 10 8 7 8 9 10 10 9 9 8 9 11 12 12 12 12 11 11 13 13 12 11 9 10 8 9 9 11 11 10 15 19
24 23 22 20 20 20 22 23 23 21 15 11 9 8 7 7 8 9 10 11 12 11 11 11 12 13 14 15 16 15 14 14 13 13 12 10 9 9 9 10 10 13 16 19 18
28 26 23 23 24 25 25 25 22 16 11 10 10 9 8 11 11 11 13 13 14 15 15 14 14 14 14 16 17 18 17 13 10 10 10 10 11 12 11 12 15 17 18 15 14
30 28 27 27 28 29 26 24 18 14 12 11 11 11 12 12 13 16 16 16 17 18 19 17 16 16 15 15 17 17 16 16 14 13 12 12 13 12 14 16 17 19 17 13 13
33 31 31 31 30 28 25 20 17 17 16 15 14 15 16 16 16 16 18 22 21 20 19 19 18 18 17 16 17 17 17 17 17 16 15 16 15 17 18 18 19 18 16 14 17
36 35 35 34 30 27 23 22 21 21 19 19 18 16 15 14 14 16 19 20 23 23 21 20 18 18 19 19 19 19 21 20 20 22 21 21 23 20 20 21 22 23 23 23 21
39 38 37 35 32 27 26 26 24 24 23 23 22 19 18 19 17 17 18 19 22 23 24 23 20 18 19 20 22 23 24 25 27 27 28 26 23 25 23 24 26 26 21 20 21
43 41 39 37 33 30 29 29 29 28 29 28 25 23 21 20 21 21 21 20 19 21 23 26 25 24 22 22 23 24 26 27 27 27 25 26 22 26 26 28 26 21 18 19 20
47 42 39 37 34 33 32 34 34 33 31 31 29 27 25 25 24 25 26 23 21 19 19 23 26 26 25 25 25 27 28 31 30 28 27 27 26 28 28 26 23 21 22 22 24
49 45 41 38 37 36 36 36 37 37 37 32 32 29 28 28 27 29 29 28 25 23 19 19 23 25 27 28 30 31 31 29 29 26 27 30 28 27 25 22 23 26 26 27 26
49 47 44 43 41 40 41 40 41 40 42 35 35 32 31 30 30 32 31 30 29 27 25 22 24 25 26 29 31 30 30 30 30 31 31 27 24 17 21 23 25 27 30 32 32
51 49 48 47 45 45 44 45 45 43 50 41 38 35 32 31 31 30 28 29 29 28 29 29 28 30 29 30 31 31 33 35 35 36 33 29 32 20 24 25 28 29 31 33 33
53 53 52 51 50 49 49 48 49 50 55 46 41 38 36 34 35 35 34 34 33 32 34 33 34 35 34 35 34 36 38 38 39 38 35 31 34 27 25 27 30 35 37 37 34
57 58 58 56 55 54 53 53 55 59 55 51 45 41 39 37 36 36 38 38 36 35 35 37 37 37 38 40 40 41 42 40 43 42 43 42 43 36 37 38 40 40 40 41 41
63 63 62 61 59 58 59 59 63 63 54 54 51 48 45 42 40 39 41 40 40 41 42 43 42 39 41 44 46 47 47 45 51 51 51 51 52 49 48 48 45 45 43 44 46
65 64 64 62 63 63 62 66 66 63 57 51 52 55 51 45 45 44 44 44 42 44 46 48 50 46 46 47 48 49 49 48 52 53 56 58 57 57 55 53 49 45 47 50 53
68 66 65 65 66 64 67 71 69 62 59 56 55 54 54 50 49 47 49 53 48 46 47 52 53 53 52 51 49 48 49 51 50 53 58 58 59 58 55 53 50 51 53 56 55
71 71 68 67 69 71 72 70 67 63 59 59 58 57 55 53 54 57 59 57 57 51 50 51 53 57 57 54 50 52 54 53 52 55 55 56 58 55 53 54 53 54 54 56 59
75 73 72 68 71 73 72 70 69 65 61 60 61 61 60 58 58 61 64 62 58 54 54 53 54 57 55 56 56 55 52 53 54 54 59 62 60 56 56 54 54 55 58 60 62
81 79 77 74 74 73 74 73 71 70 69 67 66 66 64 66 68 63 60 58 59 54 57 56 58 58 60 59 57 56 57 57 58 61 62 61 62 56 58 61 60 60 62 65 67
85 81 79 78 76 75 75 76 75 75 73 72 72 71 69 69 65 68 62 57 56 59 57 56 58 62 61 59 57 60 61 63 65 70 65 69 61 63 62 62 64 66 67 67 69
83 82 81 79 76 74 74 76 76 74 73 73 73 72 70 70 69 67 65 64 63 62 64 67 69 68 67 65 64 67 66 65 70 67 67 64 65 65 64 64 66 65 68 71 72
74 78 79 79 76 74 72 72 74 74 77 77 75 74 73 72 70 68 68 70 70 69 68 71 75 74 76 71 72 72 70 72 70 66 67 67 70 70 67 64 64 67 72 74 74
70 70 74 77 73 73 68 67 71 72 73 72 73 73 72 68 65 63 62 64 68 69 69 70 72 74 75 75 72 75 78 74 74 72 71 73 67 68 65 64 66 73 75 76 77
Wind_Direction
233 241 250 261 272 284 295 304 310 315 320 323 321 320 319 309 296 278 271 283 298 259 229 198 160 137 142 174 234 302 293 283 286 285 287 296 301 303 311 325 335 341 351 358 349
225 233 240 255 269 279 289 299 307 312 315 316 320 317 312 299 276 261 252 239 245 228 229 221 201 187 223 248 243 248 260 261 280 273 290 302 305 309 305 321 350 354 347 347 347
231 240 247 257 268 276 286 293 302 307 311 317 318 313 304 290 265 247 237 235 239 241 245 240 229 246 272 268 248 244 254 270 280 277 283 288 293 293 296 326 332 343 343 336 330
241 247 253 260 263 269 279 288 298 303 309 312 314 315 301 293 286 261 247 242 242 243 248 254 252 262 269 268 261 261 262 268 274 280 284 283 291 305 319 322 326 327 332 332 322
248 251 254 254 263 271 277 283 292 295 295 301 308 310 284 288 281 265 257 252 253 249 248 255 263 268 271 272 269 269 268 273 283 292 298 295 298 301 310 318 321 322 322 321 326
250 250 251 257 268 275 279 282 282 279 273 288 299 302 293 278 274 263 252 253 256 260 259 263 269 272 274 276 278 283 289 290 288 293 300 301 298 300 304 311 320 318 321 322 327
250 247 252 261 268 275 278 276 268 258 269 281 289 291 292 287 281 271 264 262 263 266 269 267 268 271 270 275 282 288 294 299 296 300 306 308 300 293 300 308 315 319 317 312 330
247 253 256 261 267 273 271 264 256 265 276 286 288 291 299 286 283 284 277 266 267 274 273 273 268 270 272 271 281 288 291 298 302 306 305 301 294 297 299 307 312 318 323 311 304
247 252 258 262 265 266 256 252 257 267 274 278 279 283 295 289 291 288 283 279 269 272 273 275 274 272 270 274 276 280 285 290 296 297 298 297 294 288 291 301 308 315 315 307 301
249 254 257 259 261 256 250 255 262 270 277 280 276 272 284 284 286 294 295 288 274 268 270 271 272 275 273 274 275 278 282 283 286 292 294 291 291 291 292 303 308 309 305 297 296
248 251 254 256 257 252 251 256 262 268 275 278 280 276 277 278 280 289 290 292 283 269 268 267 270 271 272 273 276 278 280 284 285 285 283 284 286 290 296 304 304 299 301 301 301
250 250 249 252 253 252 252 255 260 265 269 274 274 276 277 279 282 288 286 287 287 278 271 273 267 265 268 272 276 277 282 283 281 282 281 281 282 286 290 294 291 286 297 302 312
254 250 247 249 251 251 254 257 263 266 268 266 272 272 276 278 279 279 282 283 282 276 267 267 270 272 269 271 272 276 280 282 281 281 286 284 278 278 276 278 279 284 294 303 307
252 250 250 248 248 251 254 257 260 264 266 265 264 268 270 275 277 278 278 278 278 276 268 257 261 264 267 271 271 274 275 276 275 277 281 281 277 272 271 274 279 288 292 295 297
246 246 247 249 249 253 256 259 261 264 267 268 269 270 273 275 275 273 274 274 274 272 269 269 264 262 258 258 264 267 269 272 274 281 276 272 275 271 275 281 284 290 292 295 298
245 249 249 249 252 254 256 258 263 262 263 267 268 271 274 276 278 278 276 274 273 272 271 272 271 271 270 264 263 263 265 266 269 275 273 270 272 276 277 279 284 291 294 295 299
245 247 250 252 253 255 256 258 259 259 265 268 270 273 274 274 273 274 276 277 274 272 270 271 273 274 272 272 273 276 274 270 269 270 270 272 269 271 275 285 291 293 294 296 299
245 247 249 252 254 254 257 257 258 262 262 271 276 274 273 273 270 270 271 272 274 272 273 272 270 269 270 270 271 272 272 275 279 278 277 276 275 279 284 291 295 295 297 300 302
248 250 251 252 251 252 253 255 259 261 265 266 269 272 272 270 272 270 269 270 269 271 272 274 273 271 268 268 267 268 270 272 273 275 278 279 282 284 287 291 294 297 300 301 301
248 248 251 254 255 254 253 253 256 260 264 263 264 266 270 269 267 267 272 274 271 269 269 272 274 272 271 269 269 272 272 274 276 278 278 279 282 285 289 291 295 296 296 294 296
248 248 246 250 252 254 257 259 261 261 261 264 264 263 262 264 267 270 270 271 275 274 269 268 269 272 270 274 274 271 272 275 277 276 280 280 279 285 290 294 296 296 294 295 297
249 251 250 249 252 253 255 258 261 261 261 261 262 264 266 265 262 266 270 270 272 270 269 267 266 267 269 268 270 272 277 279 278 280 276 276 280 287 290 292 290 293 293 293 293
249 249 251 253 252 253 257 257 257 258 259 260 261 262 262 265 267 264 265 268 270 267 269 268 266 266 265 268 273 277 275 274 276 275 275 279 283 287 288 291 290 292 294 290 291
249 248 250 250 253 254 253 256 259 260 261 263 264 261 260 261 260 268 266 260 261 263 261 264 265 268 271 276 278 277 277 279 279 277 281 279 286 288 289 288 290 289 288 289 291
248 247 245 244 244 247 249 249 251 253 255 256 258 260 261 261 261 261 259 259 259 259 261 261 264 270 271 274 275 277 279 281 279 282 280 285 282 287 291 290 289 287 289 290 294
254 251 249 247 246 246 246 246 247 247 249 251 254 255 256 256 258 259 257 258 259 261 263 264 267 268 270 272 275 276 277 275 278 281 281 282 282 287 289 287 285 284 286 290 294
248 254 255 253 251 248 248 248 248 248 249 251 252 254 257 259 261 262 262 264 267 267 267 270 273 274 277 276 278 277 280 282 281 281 282 281 284 280 280 280 278 280 285 291 294
Height
5870 5871 5872 5873 5874 5874 5873 5873 5872 5872 5871 5870 5869 5868 5867 5867 5866 5865 5865 5866 5865 5864 5864 5864 5863 5863 5863 5862 5862 5863 5863 5862 5861 5861 5861 5860 5860 5859 5858 5857 5857 5856 5855 5854 5853
5866 5868 5868 5869 5870 5870 5870 5869 5869 5868 5867 5866 5866 5865 5863 5863 5863 5863 5863 5863 5863 5863 5863 5863 5863 5862 5862 5861 5861 5861 5861 5860 5859 5859 5859 5859 5859 5857 5857 5856 5856 5855 5854 5852 5851
5863 5864 5865 5866 5866 5866 5866 5866 5866 5866 5864 5863 5862 5861 5860 5860 5860 5860 5861 5861 5861 5862 5862 5862 5862 5862 5861 5861 5859 5859 5859 5858 5858 5857 5857 5856 5856 5855 5854 5855 5854 5853 5852 5850 5848
5860 5861 5862 5862 5863 5864 5864 5864 5863 5862 5861 5860 5859 5859 5858 5858 5860 5858 5859 5859 5859 5859 5860 5861 5860 5860 5859 5859 5858 5857 5856 5856 5855 5855 5855 5854 5853 5853 5853 5853 5852 5851 5850 5848 5845
5856 5857 5858 5859 5859 5860 5860 5860 5859 5859 5859 5858 5857 5856 5856 5857 5856 5856 5857 5857 5857 5856 5857 5857 5858 5857 5857 5856 5856 5855 5854 5854 5853 5853 5853 5852 5851 5851 5851 5850 5848 5847 5846 5845 5844
5852 5852 5854 5855 5855 5855 5856 5855 5855 5855 5856 5856 5856 5855 5854 5854 5854 5854 5854 5854 5854 5854 5854 5854 5854 5854 5854 5854 5854 5853 5852 5852 5851 5850 5850 5850 5849 5848 5848 5847 5845 5844 5843 5842 5840
5847 5848 5849 5850 5850 5850 5850 5851 5851 5852 5852 5853 5853 5852 5852 5852 5851 5851 5851 5851 5851 5851 5851 5850 5851 5851 5851 5851 5851 5850 5851 5850 5849 5848 5848 5848 5847 5846 5844 5843 5842 5840 5840 5839 5837
5841 5842 5844 5844 5845 5845 5846 5846 5847 5848 5849 5849 5849 5849 5849 5848 5848 5848 5848 5848 5848 5847 5847 5847 5847 5847 5848 5848 5847 5848 5848 5847 5846 5845 5845 5845 5844 5841 5841 5840 5839 5837 5837 5836 5834
5832 5834 5836 5838 5839 5840 5841 5841 5842 5843 5843 5844 5845 5845 5846 5845 5845 5844 5844 5843 5843 5843 5843 5843 5843 5843 5844 5843 5843 5842 5842 5843 5843 5841 5841 5840 5838 5839 5838 5836 5834 5833 5832 5831 5830
5824 5827 5829 5831 5833 5834 5836 5836 5837 5838 5839 5839 5841 5843 5842 5842 5841 5840 5839 5838 5838 5838 5838 5838 5839 5839 5839 5838 5838 5838 5838 5838 5838 5837 5835 5834 5833 5831 5832 5831 5829 5828 5826 5823 5822
5815 5818 5821 5824 5826 5827 5829 5831 5834 5835 5834 5834 5835 5836 5836 5836 5836 5836 5834 5834 5833 5832 5832 5833 5834 5833 5832 5832 5832 5832 5832 5832 5831 5831 5830 5827 5829 5826 5825 5825 5823 5821 5820 5818 5816
5808 5810 5812 5816 5818 5820 5822 5823 5825 5827 5828 5827 5828 5830 5831 5831 5831 5830 5830 5829 5828 5827 5826 5828 5827 5828 5827 5827 5826 5826 5826 5825 5825 5824 5824 5823 5824 5821 5819 5818 5816 5815 5814 5812 5811
5801 5803 5804 5807 5809 5812 5813 5815 5816 5817 5819 5822 5820 5822 5823 5824 5825 5824 5823 5822 5822 5821 5819 5820 5821 5822 5822 5821 5820 5819 5818 5817 5818 5817 5816 5815 5816 5815 5812 5811 5810 5809 5808 5807 5805
5792 5795 5797 5797 5801 5802 5804 5805 5806 5807 5804 5814 5813 5815 5816 5816 5817 5816 5816 5816 5815 5815 5814 5813 5813 5813 5814 5814 5813 5813 5811 5809 5809 5809 5808 5807 5806 5808 5807 5806 5805 5805 5803 5801 5798
5779 5783 5786 5788 5790 5792 5795 5796 5796 5798 5788 5802 5804 5807 5808 5809 5809 5809 5808 5808 5808 5808 5808 5809 5807 5805 5804 5803 5803 5803 5802 5801 5800 5799 5799 5800 5795 5803 5801 5800 5798 5796 5793 5791 5788
5766 5772 5775 5777 5779 5782 5783 5785 5787 5786 5777 5788 5794 5797 5801 5801 5802 5801 5801 5800 5800 5800 5799 5800 5799 5800 5800 5797 5795 5793 5792 5792 5790 5789 5789 5791 5788 5790 5790 5789 5787 5784 5781 5778 5776
5753 5756 5762 5766 5769 5770 5772 5774 5772 5767 5774 5778 5784 5787 5791 5793 5793 5791 5791 5791 5791 5791 5791 5790 5790 5791 5790 5790 5789 5788 5785 5782 5780 5779 5777 5778 5776 5780 5776 5776 5776 5772 5769 5767 5764
5736 5741 5745 5752 5756 5757 5760 5760 5755 5756 5767 5773 5776 5777 5777 5781 5782 5782 5780 5781 5781 5780 5780 5779 5780 5780 5780 5780 5778 5777 5777 5778 5769 5767 5766 5764 5762 5765 5765 5764 5763 5761 5759 5755 5752
5722 5725 5731 5736 5738 5742 5744 5742 5742 5749 5757 5763 5764 5763 5766 5768 5768 5769 5768 5769 5771 5770 5770 5767 5766 5770 5768 5766 5766 5765 5765 5766 5760 5759 5755 5752 5752 5751 5751 5751 5749 5749 5746 5742 5738
5708 5711 5716 5720 5724 5727 5727 5725 5730 5740 5745 5746 5746 5750 5752 5757 5754 5753 5756 5756 5759 5760 5759 5755 5753 5753 5753 5753 5754 5755 5752 5750 5750 5747 5741 5742 5741 5739 5739 5738 5737 5735 5733 5730 5726
5692 5695 5700 5701 5705 5708 5712 5716 5721 5727 5729 5731 5733 5732 5735 5738 5741 5742 5740 5742 5744 5748 5746 5743 5742 5740 5739 5741 5743 5739 5737 5740 5740 5734 5731 5728 5726 5729 5727 5725 5723 5720 5718 5714 5712
5675 5680 5684 5689 5686 5691 5698 5704 5707 5709 5714 5714 5715 5717 5719 5721 5722 5723 5726 5729 5729 5730 5731 5729 5726 5726 5728 5725 5725 5725 5728 5727 5722 5722 5718 5714 5715 5719 5715 5713 5709 5707 5704 5702 5697
5655 5663 5669 5670 5671 5677 5680 5685 5689 5691 5693 5698 5700 5701 5704 5704 5702 5706 5711 5715 5712 5714 5713 5715 5708 5711 5710 5711 5713 5715 5714 5711 5709 5705 5704 5701 5701 5704 5699 5695 5692 5689 5687 5683 5680
5635 5642 5650 5655 5656 5661 5665 5666 5668 5672 5675 5676 5679 5683 5684 5686 5688 5688 5695 5697 5699 5697 5699 5696 5690 5692 5696 5700 5699 5695 5696 5697 5694 5688 5692 5684 5690 5687 5685 5681 5678 5673 5669 5665 5661
5613 5621 5626 5633 5637 5639 5642 5647 5651 5653 5656 5659 5660 5662 5663 5666 5669 5672 5676 5677 5678 5681 5681 5679 5673 5675 5680 5682 5681 5681 5682 5681 5673 5677 5670 5681 5671 5672 5670 5663 5659 5655 5653 5648 5645
5594 5600 5606 5613 5617 5620 5623 5627 5631 5634 5637 5640 5641 5643 5645 5648 5649 5652 5656 5658 5661 5662 5662 5660 5656 5658 5657 5666 5659 5658 5665 5661 5660 5660 5654 5657 5657 5654 5652 5646 5642 5637 5632 5631 5628
5574 5578 5581 5591 5596 5600 5605 5608 5612 5614 5618 5620 5622 5624 5627 5629 5630 5632 5635 5637 5639 5641 5642 5643 5640 5638 5634 5642 5638 5634 5644 5642 5639 5639 5639 5633 5645 5634 5632 5630 5626 5618 5616 5615 5609